�������l�o���
Date,Time,MP-1(��Sv/h),MP-2(��Sv/h),MP-3(��Sv/h),MP-4(��Sv/h),MP-5(��Sv/h),MP-6(��Sv/h),MP-7(��Sv/h),MP-8(��Sv/h),����,����(m/s),���J
2023/06/04,00:00,0.532,0.790,0.486,0.964,0.691,0.322,0.565,0.535,���k��,5.1,��
2023/06/04,00:10,0.535,0.788,0.486,0.963,0.692,0.321,0.566,0.534,���k��,4.8,��
2023/06/04,00:20,0.533,0.789,0.486,0.964,0.693,0.323,0.564,0.536,���k��,3.4,��
2023/06/04,00:30,0.534,0.788,0.485,0.963,0.693,0.322,0.568,0.534,���k��,1.9,��
2023/06/04,00:40,0.535,0.788,0.484,0.964,0.692,0.322,0.566,0.534,-,CALM,��
2023/06/04,00:50,0.535,0.786,0.485,0.962,0.694,0.321,0.566,0.534,�쓌,1.5,��
2023/06/04,01:00,0.534,0.788,0.485,0.963,0.692,0.321,0.568,0.534,�쓌,2.0,��
2023/06/04,01:10,0.535,0.788,0.485,0.963,0.692,0.321,0.567,0.535,�쓌,2.2,��
2023/06/04,01:20,0.534,0.789,0.486,0.964,0.691,0.322,0.567,0.534,��쓌,2.0,��
2023/06/04,01:30,0.534,0.787,0.485,0.965,0.694,0.322,0.567,0.534,��쓌,2.9,��
2023/06/04,01:40,0.535,0.787,0.484,0.962,0.693,0.321,0.566,0.534,�쓌,2.5,��
2023/06/04,01:50,0.534,0.788,0.484,0.962,0.690,0.320,0.567,0.534,��쓌,2.3,��
2023/06/04,02:00,0.533,0.788,0.485,0.962,0.693,0.321,0.567,0.534,��쓌,3.0,��
2023/06/04,02:10,0.534,0.789,0.486,0.963,0.693,0.321,0.566,0.535,��,2.6,��
2023/06/04,02:20,0.534,0.789,0.484,0.964,0.693,0.321,0.568,0.535,��,2.2,��
2023/06/04,02:30,0.534,0.790,0.485,0.963,0.693,0.320,0.567,0.534,��,2.3,��
2023/06/04,02:40,0.533,0.790,0.485,0.962,0.692,0.321,0.567,0.534,��쓌,2.9,��
2023/06/04,02:50,0.532,0.789,0.485,0.961,0.691,0.321,0.567,0.533,��,2.2,��
2023/06/04,03:00,0.534,0.790,0.485,0.962,0.691,0.321,0.567,0.535,��,2.5,��
2023/06/04,03:10,0.533,0.789,0.485,0.963,0.694,0.321,0.569,0.534,��,2.2,��
2023/06/04,03:20,0.534,0.787,0.485,0.961,0.692,0.321,0.567,0.534,��,1.7,��
2023/06/04,03:30,0.534,0.789,0.484,0.962,0.694,0.321,0.567,0.535,��쓌,1.9,��
2023/06/04,03:40,0.534,0.789,0.485,0.962,0.692,0.320,0.566,0.532,��,1.5,��
2023/06/04,03:50,0.534,0.786,0.483,0.962,0.691,0.321,0.568,0.534,��쓌,1.2,��
2023/06/04,04:00,0.534,0.790,0.485,0.962,0.690,0.322,0.564,0.535,��쐼,1.5,��
2023/06/04,04:10,0.532,0.789,0.484,0.965,0.691,0.321,0.567,0.532,��,1.5,��
2023/06/04,04:20,0.534,0.787,0.483,0.962,0.691,0.320,0.566,0.535,��,2.0,��
2023/06/04,04:30,0.532,0.787,0.484,0.962,0.691,0.321,0.567,0.534,��쐼,2.0,��
2023/06/04,04:40,0.534,0.790,0.485,0.962,0.690,0.322,0.566,0.534,��,2.6,��
2023/06/04,04:50,0.532,0.789,0.483,0.962,0.694,0.322,0.567,0.534,��,2.6,��
2023/06/04,05:00,0.533,0.787,0.485,0.962,0.692,0.322,0.566,0.534,��,4.1,��
2023/06/04,05:10,0.533,0.789,0.483,0.963,0.691,0.321,0.567,0.535,��,3.7,��
2023/06/04,05:20,0.534,0.787,0.486,0.962,0.692,0.320,0.567,0.535,��,4.0,��
2023/06/04,05:30,0.534,0.790,0.486,0.965,0.692,0.322,0.568,0.535,��쓌,4.7,��
2023/06/04,05:40,0.533,0.789,0.486,0.961,0.691,0.321,0.568,0.534,��쓌,6.1,��
2023/06/04,05:50,0.535,0.791,0.486,0.962,0.692,0.322,0.568,0.534,��,6.6,��
2023/06/04,06:00,0.534,0.789,0.483,0.964,0.694,0.321,0.567,0.534,��,6.2,��
2023/06/04,06:10,0.535,0.790,0.485,0.963,0.690,0.321,0.567,0.536,��,5.3,��
2023/06/04,06:20,0.533,0.790,0.484,0.963,0.692,0.321,0.568,0.534,��,5.5,��
2023/06/04,06:30,0.535,0.789,0.485,0.966,0.693,0.322,0.569,0.534,��,5.5,��
2023/06/04,06:40,0.533,0.786,0.484,0.964,0.692,0.323,0.569,0.536,��,3.9,��
2023/06/04,06:50,0.533,0.788,0.485,0.963,0.691,0.320,0.569,0.534,��,5.9,��
2023/06/04,07:00,0.534,0.787,0.484,0.965,0.691,0.321,0.570,0.533,��쐼,5.2,��
2023/06/04,07:10,0.534,0.788,0.485,0.964,0.693,0.320,0.568,0.534,��,5.2,��
2023/06/04,07:20,0.533,0.787,0.485,0.964,0.694,0.319,0.567,0.535,��,3.6,��
2023/06/04,07:30,0.533,0.789,0.486,0.964,0.692,0.320,0.569,0.535,��,4.7,��
2023/06/04,07:40,0.533,0.790,0.485,0.964,0.694,0.320,0.566,0.535,��쓌,4.6,��
2023/06/04,07:50,0.533,0.789,0.485,0.966,0.694,0.320,0.566,0.534,��쐼,4.4,��
2023/06/04,08:00,0.533,0.793,0.486,0.965,0.693,0.320,0.567,0.534,�쐼,5.0,��
2023/06/04,08:10,0.535,0.792,0.487,0.967,0.694,0.320,0.568,0.532,���쐼,4.1,��
2023/06/04,08:20,0.535,0.792,0.484,0.965,0.693,0.320,0.568,0.533,�쐼,5.4,��
2023/06/04,08:30,0.535,0.788,0.487,0.965,0.696,0.321,0.568,0.532,�쐼,5.1,��
2023/06/04,08:40,0.535,0.790,0.486,0.965,0.694,0.322,0.565,0.533,���쐼,6.0,��
2023/06/04,08:50,0.535,0.791,0.486,0.967,0.696,0.321,0.566,0.534,���쐼,4.1,��
2023/06/04,09:00,0.536,0.789,0.488,0.967,0.695,0.321,0.568,0.533,���쐼,5.2,��
2023/06/04,09:10,0.536,0.790,0.487,0.967,0.694,0.321,0.567,0.533,���쐼,4.7,��
2023/06/04,09:20,0.536,0.792,0.487,0.967,0.694,0.321,0.567,0.534,��쐼,5.4,��
2023/06/04,09:30,0.536,0.791,0.487,0.967,0.694,0.323,0.567,0.535,��,5.8,��
2023/06/04,09:40,0.536,0.791,0.486,0.966,0.694,0.323,0.568,0.532,���쐼,5.4,��
2023/06/04,09:50,0.537,0.793,0.485,0.967,0.693,0.322,0.566,0.535,���쐼,7.8,��
2023/06/04,10:00,0.537,0.793,0.488,0.967,0.696,0.323,0.567,0.533,���쐼,6.5,��
2023/06/04,10:10,0.537,0.794,0.486,0.967,0.695,0.322,0.566,0.534,���쐼,5.8,��
2023/06/04,10:20,0.537,0.794,0.486,0.968,0.696,0.322,0.567,0.532,��,6.4,��
2023/06/04,10:30,0.537,0.796,0.489,0.964,0.696,0.322,0.567,0.533,��,6.7,��
2023/06/04,10:40,0.539,0.794,0.487,0.968,0.697,0.321,0.567,0.534,���쐼,5.7,��
2023/06/04,10:50,0.539,0.795,0.488,0.969,0.697,0.323,0.568,0.534,�쐼,5.6,��
2023/06/04,11:00,0.539,0.795,0.488,0.966,0.698,0.323,0.567,0.533,���쐼,5.5,��
2023/06/04,11:10,0.540,0.795,0.487,0.968,0.699,0.323,0.568,0.533,���쐼,7.6,��
2023/06/04,11:20,0.541,0.796,0.490,0.968,0.700,0.322,0.567,0.535,���쐼,7.4,��
2023/06/04,11:30,0.539,0.795,0.488,0.967,0.699,0.324,0.569,0.535,���쐼,7.2,��
2023/06/04,11:40,0.542,0.799,0.488,0.966,0.700,0.323,0.570,0.535,���쐼,6.5,��
2023/06/04,11:50,0.541,0.795,0.491,0.970,0.699,0.323,0.568,0.536,���쐼,5.4,��
2023/06/04,12:00,0.542,0.797,0.489,0.968,0.701,0.323,0.568,0.535,���쐼,4.2,��
2023/06/04,12:10,0.541,0.798,0.491,0.972,0.701,0.325,0.569,0.537,��,6.8,��
2023/06/04,12:20,0.542,0.799,0.490,0.969,0.700,0.324,0.569,0.537,���쐼,5.1,��
2023/06/04,12:30,0.540,0.798,0.490,0.971,0.702,0.324,0.570,0.536,�쐼,6.7,��
2023/06/04,12:40,0.544,0.801,0.490,0.970,0.703,0.323,0.568,0.535,�쐼,5.7,��
2023/06/04,12:50,0.543,0.801,0.489,0.971,0.704,0.325,0.567,0.535,��,5.3,��
2023/06/04,13:00,0.543,0.799,0.491,0.972,0.704,0.324,0.569,0.536,��,4.0,��
2023/06/04,13:10,0.544,0.803,0.491,0.970,0.704,0.323,0.569,0.536,���쐼,6.3,��
2023/06/04,13:20,0.543,0.802,0.493,0.971,0.704,0.325,0.569,0.537,��,3.6,��
2023/06/04,13:30,0.542,0.801,0.491,0.972,0.704,0.325,0.570,0.537,�k��,4.6,��
2023/06/04,13:40,0.545,0.800,0.491,0.972,0.706,0.325,0.567,0.538,���k��,5.5,��
2023/06/04,13:50,0.545,0.802,0.492,0.973,0.704,0.325,0.570,0.536,���k��,6.2,��
2023/06/04,14:00,0.546,0.805,0.493,0.973,0.705,0.325,0.570,0.538,��,6.8,��
2023/06/04,14:10,0.544,0.803,0.493,0.975,0.704,0.325,0.569,0.537,��,8.1,��
2023/06/04,14:20,0.545,0.802,0.491,0.975,0.706,0.325,0.570,0.537,��,6.3,��
2023/06/04,14:30,0.545,0.804,0.492,0.973,0.707,0.325,0.569,0.537,��,6.7,��
2023/06/04,14:40,0.546,0.807,0.490,0.975,0.707,0.324,0.569,0.537,���쐼,7.5,��
2023/06/04,14:50,0.543,0.806,0.491,0.977,0.706,0.324,0.570,0.538,���쐼,6.8,��
2023/06/04,15:00,0.543,0.807,0.493,0.975,0.707,0.325,0.570,0.535,�쐼,6.4,��
2023/06/04,15:10,0.545,0.807,0.492,0.976,0.707,0.325,0.571,0.539,���쐼,5.7,��
2023/06/04,15:20,0.545,0.805,0.492,0.976,0.707,0.324,0.569,0.538,��,6.2,��
2023/06/04,15:30,0.545,0.808,0.493,0.977,0.707,0.325,0.570,0.538,��,6.9,��
2023/06/04,15:40,0.547,0.806,0.492,0.976,0.707,0.326,0.570,0.537,���쐼,5.9,��
2023/06/04,15:50,0.547,0.807,0.491,0.976,0.708,0.325,0.570,0.537,��,7.3,��
2023/06/04,16:00,0.545,0.805,0.491,0.976,0.707,0.324,0.571,0.538,���k��,7.8,��
2023/06/04,16:10,0.548,0.806,0.491,0.977,0.707,0.326,0.571,0.537,��,6.3,��
2023/06/04,16:20,0.546,0.806,0.492,0.977,0.706,0.324,0.570,0.537,��,7.3,��
2023/06/04,16:30,0.544,0.806,0.492,0.979,0.708,0.325,0.569,0.536,��,7.8,��
2023/06/04,16:40,0.546,0.805,0.491,0.978,0.709,0.325,0.569,0.536,��,6.8,��
2023/06/04,16:50,0.544,0.807,0.493,0.978,0.708,0.325,0.569,0.536,��,8.7,��
2023/06/04,17:00,0.545,0.804,0.492,0.978,0.710,0.324,0.570,0.537,��,5.5,��
2023/06/04,17:10,0.544,0.805,0.492,0.981,0.709,0.325,0.569,0.537,��,7.3,��
2023/06/04,17:20,0.546,0.808,0.492,0.979,0.710,0.323,0.570,0.536,���k��,7.4,��
2023/06/04,17:30,0.544,0.806,0.491,0.980,0.709,0.326,0.569,0.536,���k��,5.6,��
2023/06/04,17:40,0.544,0.806,0.491,0.979,0.709,0.325,0.568,0.538,���k��,6.7,��
2023/06/04,17:50,0.543,0.806,0.491,0.981,0.710,0.324,0.568,0.536,��,4.5,��
2023/06/04,18:00,0.543,0.804,0.491,0.980,0.707,0.325,0.569,0.538,���쐼,3.8,��
2023/06/04,18:10,0.543,0.806,0.492,0.978,0.706,0.324,0.568,0.537,���쐼,3.8,��
2023/06/04,18:20,0.544,0.806,0.492,0.979,0.708,0.327,0.568,0.537,���쐼,3.3,��
2023/06/04,18:30,0.543,0.803,0.490,0.979,0.709,0.325,0.568,0.538,�쐼,3.0,��
2023/06/04,18:40,0.543,0.804,0.491,0.980,0.709,0.326,0.568,0.538,��쐼,3.3,��
2023/06/04,18:50,0.544,0.804,0.492,0.979,0.709,0.325,0.569,0.536,�쐼,2.8,��
2023/06/04,19:00,0.542,0.803,0.492,0.978,0.711,0.326,0.568,0.538,�쐼,3.0,��
2023/06/04,19:10,0.543,0.805,0.492,0.977,0.709,0.324,0.569,0.539,�쐼,2.8,��
2023/06/04,19:20,0.543,0.805,0.493,0.980,0.710,0.325,0.569,0.538,��쐼,2.8,��
2023/06/04,19:30,0.544,0.806,0.494,0.981,0.711,0.324,0.571,0.539,��,5.3,��
2023/06/04,19:40,0.543,0.808,0.493,0.982,0.711,0.324,0.570,0.539,��,4.6,��
2023/06/04,19:50,0.544,0.806,0.492,0.982,0.708,0.325,0.571,0.538,��,4.4,��
2023/06/04,20:00,0.543,0.809,0.494,0.983,0.711,0.325,0.570,0.538,��,3.7,��
2023/06/04,20:10,0.544,0.807,0.494,0.983,0.712,0.326,0.570,0.540,��쐼,3.0,��
2023/06/04,20:20,0.543,0.809,0.494,0.982,0.711,0.325,0.571,0.537,��쐼,2.2,��
2023/06/04,20:30,0.545,0.806,0.493,0.983,0.709,0.326,0.570,0.540,��쐼,3.3,��
2023/06/04,20:40,0.544,0.808,0.492,0.982,0.711,0.324,0.571,0.539,��쐼,3.3,��
2023/06/04,20:50,0.546,0.807,0.493,0.983,0.711,0.325,0.570,0.539,��쐼,2.6,��
2023/06/04,21:00,0.545,0.809,0.493,0.982,0.710,0.326,0.572,0.539,��쐼,3.1,��
2023/06/04,21:10,0.544,0.807,0.494,0.982,0.711,0.326,0.571,0.537,��쐼,3.6,��
2023/06/04,21:20,0.544,0.806,0.493,0.980,0.711,0.325,0.570,0.539,��쐼,4.0,��
2023/06/04,21:30,0.547,0.809,0.494,0.982,0.710,0.325,0.571,0.537,��쐼,4.7,��
2023/06/04,21:40,0.545,0.808,0.493,0.983,0.711,0.325,0.572,0.538,��쐼,4.9,��
2023/06/04,21:50,0.543,0.807,0.494,0.983,0.710,0.325,0.572,0.537,��쐼,4.9,��
2023/06/04,22:00,0.545,0.808,0.492,0.982,0.711,0.324,0.572,0.539,��쐼,4.6,��
2023/06/04,22:10,0.545,0.809,0.492,0.985,0.709,0.324,0.572,0.538,��쐼,5.5,��
2023/06/04,22:20,0.544,0.808,0.493,0.983,0.711,0.325,0.570,0.539,��쐼,4.8,��
2023/06/04,22:30,0.545,0.809,0.493,0.982,0.711,0.324,0.572,0.537,��쐼,5.6,��
2023/06/04,22:40,0.544,0.810,0.494,0.984,0.712,0.325,0.571,0.539,��쐼,6.3,��
2023/06/04,22:50,0.544,0.808,0.493,0.986,0.711,0.324,0.573,0.538,��쐼,6.2,��
2023/06/04,23:00,0.544,0.807,0.493,0.984,0.710,0.326,0.573,0.539,��쐼,7.5,��
2023/06/04,23:10,0.545,0.808,0.493,0.984,0.712,0.326,0.574,0.538,��쐼,7.7,��
2023/06/04,23:20,0.543,0.809,0.494,0.984,0.713,0.325,0.571,0.538,�쐼,7.6,��
2023/06/04,23:30,0.543,0.808,0.492,0.983,0.709,0.324,0.573,0.538,��쐼,7.2,��
2023/06/04,23:40,0.545,0.809,0.493,0.984,0.710,0.325,0.571,0.537,��쐼,7.5,��
2023/06/04,23:50,0.543,0.810,0.493,0.984,0.711,0.325,0.572,0.538,��쐼,7.0,��
